Year,Month,Day,Hour,Minute,Value (Times are PST for temperature in C)
2015,07,01,00,00,15.80
2015,07,01,00,01,15.80
2015,07,01,00,02,15.80
2015,07,01,00,03,15.80
2015,07,01,00,04,15.80
2015,07,01,00,05,15.80
2015,07,01,00,06,15.80
2015,07,01,00,07,15.80
2015,07,01,00,08,15.80
2015,07,01,00,09,15.80
2015,07,01,00,10,15.80
2015,07,01,00,11,15.90
2015,07,01,00,12,15.90
2015,07,01,00,13,15.90
2015,07,01,00,14,15.90
2015,07,01,00,15,15.90
2015,07,01,00,16,15.90
2015,07,01,00,17,15.90
2015,07,01,00,18,15.90
2015,07,01,00,19,15.90
2015,07,01,00,20,15.90
2015,07,01,00,21,15.90
2015,07,01,00,22,15.90
2015,07,01,00,23,15.90
2015,07,01,00,24,15.90
2015,07,01,00,25,15.90
2015,07,01,00,26,15.90
2015,07,01,00,27,15.90
2015,07,01,00,28,15.90
2015,07,01,00,29,15.90
2015,07,01,00,30,15.90
2015,07,01,00,31,15.80
2015,07,01,00,32,15.80
2015,07,01,00,33,15.80
2015,07,01,00,34,15.80
2015,07,01,00,35,15.80
2015,07,01,00,36,15.80
2015,07,01,00,37,15.80
2015,07,01,00,38,15.80
2015,07,01,00,39,15.80
2015,07,01,00,40,15.80
2015,07,01,00,41,15.80
2015,07,01,00,42,15.80
2015,07,01,00,43,15.80
2015,07,01,00,44,15.80
2015,07,01,00,45,15.80
2015,07,01,00,46,15.80
2015,07,01,00,47,15.80
2015,07,01,00,48,15.80
2015,07,01,00,49,15.80
2015,07,01,00,50,15.80
2015,07,01,00,51,15.80
2015,07,01,00,52,15.80
2015,07,01,00,53,15.70
2015,07,01,00,54,15.70
2015,07,01,00,55,15.70
2015,07,01,00,56,15.70
2015,07,01,00,57,15.70
2015,07,01,00,58,15.70
2015,07,01,00,59,15.60
2015,07,01,01,00,15.60
2015,07,01,01,01,15.60
2015,07,01,01,02,15.60
2015,07,01,01,03,15.60
2015,07,01,01,04,15.60
2015,07,01,01,05,15.60
2015,07,01,01,06,15.60
2015,07,01,01,07,15.60
2015,07,01,01,08,15.60
2015,07,01,01,09,15.50
2015,07,01,01,10,15.50
2015,07,01,01,11,15.50
2015,07,01,01,12,15.50
2015,07,01,01,13,15.40
2015,07,01,01,14,15.40
2015,07,01,01,15,15.40
2015,07,01,01,16,15.40
2015,07,01,01,17,15.40
2015,07,01,01,18,15.40
2015,07,01,01,19,15.40
2015,07,01,01,20,15.40
2015,07,01,01,21,15.40
2015,07,01,01,22,15.40
2015,07,01,01,23,15.40
2015,07,01,01,24,15.40
2015,07,01,01,25,15.40
2015,07,01,01,26,15.40
2015,07,01,01,27,15.40
2015,07,01,01,28,15.40
2015,07,01,01,29,15.40
2015,07,01,01,30,15.40
2015,07,01,01,31,15.40
2015,07,01,01,32,15.40
2015,07,01,01,33,15.30
2015,07,01,01,34,15.30
2015,07,01,01,35,15.30
2015,07,01,01,36,15.30
2015,07,01,01,37,15.30
2015,07,01,01,38,15.30
2015,07,01,01,39,15.30
2015,07,01,01,40,15.20
2015,07,01,01,41,15.20
2015,07,01,01,42,15.20
2015,07,01,01,43,15.20
2015,07,01,01,44,15.20
2015,07,01,01,45,15.20
2015,07,01,01,46,15.20
2015,07,01,01,47,15.20
2015,07,01,01,48,15.20
2015,07,01,01,49,15.20
2015,07,01,01,50,15.10
2015,07,01,01,51,15.10
2015,07,01,01,52,15.10
2015,07,01,01,53,15.10
2015,07,01,01,54,15.10
2015,07,01,01,55,15.10
2015,07,01,01,56,15.10
2015,07,01,01,57,15.10
2015,07,01,01,58,15.10
2015,07,01,01,59,15.10
2015,07,01,02,00,15.10
2015,07,01,02,01,15.00
2015,07,01,02,02,15.00
2015,07,01,02,03,15.00
2015,07,01,02,04,15.00
2015,07,01,02,05,15.00
2015,07,01,02,06,15.00
2015,07,01,02,07,15.00
2015,07,01,02,08,15.00
2015,07,01,02,09,15.00
2015,07,01,02,10,15.00
2015,07,01,02,11,15.00
2015,07,01,02,12,14.90
2015,07,01,02,13,14.90
2015,07,01,02,14,14.90
2015,07,01,02,15,14.90
2015,07,01,02,16,14.90
2015,07,01,02,17,14.90
2015,07,01,02,18,14.90
2015,07,01,02,19,14.90
2015,07,01,02,20,14.90
2015,07,01,02,21,14.90
2015,07,01,02,22,14.90
2015,07,01,02,23,14.90
2015,07,01,02,24,14.90
2015,07,01,02,25,14.90
2015,07,01,02,26,14.90
2015,07,01,02,27,14.90
2015,07,01,02,28,14.80
2015,07,01,02,29,14.80
2015,07,01,02,30,14.80
2015,07,01,02,31,14.80
2015,07,01,02,32,14.80
2015,07,01,02,33,14.80
2015,07,01,02,34,14.80
2015,07,01,02,35,14.80
2015,07,01,02,36,14.80
2015,07,01,02,37,14.80
2015,07,01,02,38,14.90
2015,07,01,02,39,14.90
2015,07,01,02,40,14.90
2015,07,01,02,41,14.90
2015,07,01,02,42,14.90
2015,07,01,02,43,14.80
2015,07,01,02,44,14.80
2015,07,01,02,45,14.80
2015,07,01,02,46,14.80
2015,07,01,02,47,14.80
2015,07,01,02,48,14.80
2015,07,01,02,49,14.80
2015,07,01,02,50,14.70
2015,07,01,02,51,14.70
2015,07,01,02,52,14.70
2015,07,01,02,53,14.70
2015,07,01,02,54,14.70
2015,07,01,02,55,14.70
2015,07,01,02,56,14.60
2015,07,01,02,57,14.60
2015,07,01,02,58,14.60
2015,07,01,02,59,14.60
2015,07,01,03,00,14.60
2015,07,01,03,01,14.60
2015,07,01,03,02,14.60
2015,07,01,03,03,14.60
2015,07,01,03,04,14.60
2015,07,01,03,05,14.60
2015,07,01,03,06,14.60
2015,07,01,03,07,14.60
2015,07,01,03,08,14.60
2015,07,01,03,09,14.60
2015,07,01,03,10,14.60
2015,07,01,03,11,14.60
2015,07,01,03,12,14.60
2015,07,01,03,13,14.60
2015,07,01,03,14,14.60
2015,07,01,03,15,14.60
2015,07,01,03,16,14.60
2015,07,01,03,17,14.60
2015,07,01,03,18,14.50
2015,07,01,03,19,14.50
2015,07,01,03,20,14.50
2015,07,01,03,21,14.50
2015,07,01,03,22,14.50
2015,07,01,03,23,14.50
2015,07,01,03,24,14.40
2015,07,01,03,25,14.40
2015,07,01,03,26,14.40
2015,07,01,03,27,14.40
2015,07,01,03,28,14.30
2015,07,01,03,29,14.30
2015,07,01,03,30,14.30
2015,07,01,03,31,14.30
2015,07,01,03,32,14.30
2015,07,01,03,33,14.30
2015,07,01,03,34,14.30
2015,07,01,03,35,14.30
2015,07,01,03,36,14.30
2015,07,01,03,37,14.30
2015,07,01,03,38,14.30
2015,07,01,03,39,14.30
2015,07,01,03,40,14.20
2015,07,01,03,41,14.20
2015,07,01,03,42,14.20
2015,07,01,03,43,14.20
2015,07,01,03,44,14.20
2015,07,01,03,45,14.20
2015,07,01,03,46,14.20
2015,07,01,03,47,14.20
2015,07,01,03,48,14.20
2015,07,01,03,49,14.20
2015,07,01,03,50,14.10
2015,07,01,03,51,14.10
2015,07,01,03,52,14.10
2015,07,01,03,53,14.10
2015,07,01,03,54,14.10
2015,07,01,03,55,14.10
2015,07,01,03,56,14.10
2015,07,01,03,57,14.10
2015,07,01,03,58,14.10
2015,07,01,03,59,14.10
2015,07,01,04,00,14.10
2015,07,01,04,01,14.10
2015,07,01,04,02,14.10
2015,07,01,04,03,14.10
2015,07,01,04,04,14.10
2015,07,01,04,05,14.10
2015,07,01,04,06,14.10
2015,07,01,04,07,14.10
2015,07,01,04,08,14.10
2015,07,01,04,09,14.10
2015,07,01,04,10,14.10
2015,07,01,04,11,14.10
2015,07,01,04,12,14.10
2015,07,01,04,13,14.10
2015,07,01,04,14,14.00
2015,07,01,04,15,14.00
2015,07,01,04,16,14.00
2015,07,01,04,17,13.90
2015,07,01,04,18,13.90
2015,07,01,04,19,13.90
2015,07,01,04,20,14.00
2015,07,01,04,21,14.00
2015,07,01,04,22,14.00
2015,07,01,04,23,14.00
2015,07,01,04,24,14.00
2015,07,01,04,25,14.00
2015,07,01,04,26,14.00
2015,07,01,04,27,14.00
2015,07,01,04,28,14.00
2015,07,01,04,29,14.00
2015,07,01,04,30,14.00
2015,07,01,04,31,14.00
2015,07,01,04,32,14.00
2015,07,01,04,33,14.00
2015,07,01,04,34,14.00
2015,07,01,04,35,14.00
2015,07,01,04,36,14.00
2015,07,01,04,37,14.00
2015,07,01,04,38,14.00
2015,07,01,04,39,14.00
2015,07,01,04,40,14.00
2015,07,01,04,41,14.00
2015,07,01,04,42,13.90
2015,07,01,04,43,13.90
2015,07,01,04,44,13.90
2015,07,01,04,45,13.90
2015,07,01,04,46,13.80
2015,07,01,04,47,13.80
2015,07,01,04,48,13.80
2015,07,01,04,49,13.80
2015,07,01,04,50,13.80
2015,07,01,04,51,13.80
2015,07,01,04,52,13.80
2015,07,01,04,53,13.80
2015,07,01,04,54,13.70
2015,07,01,04,55,13.70
2015,07,01,04,56,13.60
2015,07,01,04,57,13.60
2015,07,01,04,58,13.60
2015,07,01,04,59,13.50
2015,07,01,05,00,13.50
2015,07,01,05,01,13.50
2015,07,01,05,02,13.40
2015,07,01,05,03,13.40
2015,07,01,05,04,13.40
2015,07,01,05,05,13.40
2015,07,01,05,06,13.40
2015,07,01,05,07,13.40
2015,07,01,05,08,13.40
2015,07,01,05,09,13.40
2015,07,01,05,10,13.40
2015,07,01,05,11,13.40
2015,07,01,05,12,13.40
2015,07,01,05,13,13.40
2015,07,01,05,14,13.40
2015,07,01,05,15,13.40
2015,07,01,05,16,13.50
2015,07,01,05,17,13.50
2015,07,01,05,18,13.50
2015,07,01,05,19,13.50
2015,07,01,05,20,13.50
2015,07,01,05,21,13.50
2015,07,01,05,22,13.50
2015,07,01,05,23,13.60
2015,07,01,05,24,13.60
2015,07,01,05,25,13.60
2015,07,01,05,26,13.60
2015,07,01,05,27,13.50
2015,07,01,05,28,13.50
2015,07,01,05,29,13.50
2015,07,01,05,30,13.50
2015,07,01,05,31,13.50
2015,07,01,05,32,13.50
2015,07,01,05,33,13.50
2015,07,01,05,34,13.60
2015,07,01,05,35,13.60
2015,07,01,05,36,13.60
2015,07,01,05,37,13.70
2015,07,01,05,38,13.70
2015,07,01,05,39,13.70
2015,07,01,05,40,13.70
2015,07,01,05,41,13.80
2015,07,01,05,42,13.80
2015,07,01,05,43,13.80
2015,07,01,05,44,13.80
2015,07,01,05,45,13.90
2015,07,01,05,46,13.90
2015,07,01,05,47,13.90
2015,07,01,05,48,13.90
2015,07,01,05,49,13.90
2015,07,01,05,50,13.90
2015,07,01,05,51,13.90
2015,07,01,05,52,13.90
2015,07,01,05,53,13.90
2015,07,01,05,54,13.90
2015,07,01,05,55,13.90
2015,07,01,05,56,13.90
2015,07,01,05,57,13.90
2015,07,01,05,58,13.90
2015,07,01,05,59,13.90
2015,07,01,06,00,13.90
2015,07,01,06,01,14.00
2015,07,01,06,02,14.00
2015,07,01,06,03,14.10
2015,07,01,06,04,14.10
2015,07,01,06,05,14.20
2015,07,01,06,06,14.20
2015,07,01,06,07,14.30
2015,07,01,06,08,14.30
2015,07,01,06,09,14.30
2015,07,01,06,10,14.40
2015,07,01,06,11,14.40
2015,07,01,06,12,14.50
2015,07,01,06,13,14.50
2015,07,01,06,14,14.60
2015,07,01,06,15,14.60
2015,07,01,06,16,14.70
2015,07,01,06,17,14.70
2015,07,01,06,18,14.70
2015,07,01,06,19,14.80
2015,07,01,06,20,14.80
2015,07,01,06,21,14.80
2015,07,01,06,22,14.90
2015,07,01,06,23,14.90
2015,07,01,06,24,15.00
2015,07,01,06,25,15.00
2015,07,01,06,26,15.10
2015,07,01,06,27,15.10
2015,07,01,06,28,15.10
2015,07,01,06,29,15.20
2015,07,01,06,30,15.30
2015,07,01,06,31,15.40
2015,07,01,06,32,15.50
2015,07,01,06,33,15.50
2015,07,01,06,34,15.60
2015,07,01,06,35,15.60
2015,07,01,06,36,15.70
2015,07,01,06,37,15.70
2015,07,01,06,38,15.70
2015,07,01,06,39,15.80
2015,07,01,06,40,15.80
2015,07,01,06,41,15.90
2015,07,01,06,42,15.90
2015,07,01,06,43,15.90
2015,07,01,06,44,16.00
2015,07,01,06,45,16.00
2015,07,01,06,46,16.10
2015,07,01,06,47,16.10
2015,07,01,06,48,16.20
2015,07,01,06,49,16.30
2015,07,01,06,50,16.30
2015,07,01,06,51,16.40
2015,07,01,06,52,16.50
2015,07,01,06,53,16.60
2015,07,01,06,54,16.60
2015,07,01,06,55,16.70
2015,07,01,06,56,16.80
2015,07,01,06,57,16.80
2015,07,01,06,58,16.90
2015,07,01,06,59,17.00
2015,07,01,07,00,17.10
2015,07,01,07,01,17.20
2015,07,01,07,02,17.30
2015,07,01,07,03,17.40
2015,07,01,07,04,17.40
2015,07,01,07,05,17.50
2015,07,01,07,06,17.50
2015,07,01,07,07,17.60
2015,07,01,07,08,17.60
2015,07,01,07,09,17.70
2015,07,01,07,10,17.80
2015,07,01,07,11,17.80
2015,07,01,07,12,17.80
2015,07,01,07,13,17.80
2015,07,01,07,14,17.90
2015,07,01,07,15,17.90
2015,07,01,07,16,17.90
2015,07,01,07,17,17.90
2015,07,01,07,18,18.00
2015,07,01,07,19,18.00
2015,07,01,07,20,18.10
2015,07,01,07,21,18.20
2015,07,01,07,22,18.20
2015,07,01,07,23,18.30
2015,07,01,07,24,18.30
2015,07,01,07,25,18.30
2015,07,01,07,26,18.30
2015,07,01,07,27,18.30
2015,07,01,07,28,18.30
2015,07,01,07,29,18.40
2015,07,01,07,30,18.50
2015,07,01,07,31,18.50
2015,07,01,07,32,18.60
2015,07,01,07,33,18.60
2015,07,01,07,34,18.70
2015,07,01,07,35,18.70
2015,07,01,07,36,18.80
2015,07,01,07,37,18.90
2015,07,01,07,38,19.10
2015,07,01,07,39,19.20
2015,07,01,07,40,19.40
2015,07,01,07,41,19.50
2015,07,01,07,42,19.60
2015,07,01,07,43,19.70
2015,07,01,07,44,19.80
2015,07,01,07,45,19.80
2015,07,01,07,46,19.90
2015,07,01,07,47,19.90
2015,07,01,07,48,20.00
2015,07,01,07,49,20.10
2015,07,01,07,50,20.20
2015,07,01,07,51,20.30
2015,07,01,07,52,20.30
2015,07,01,07,53,20.50
2015,07,01,07,54,20.60
2015,07,01,07,55,20.60
2015,07,01,07,56,20.70
2015,07,01,07,57,20.70
2015,07,01,07,58,20.70
2015,07,01,07,59,20.70
2015,07,01,08,00,20.70
2015,07,01,08,01,20.70
2015,07,01,08,02,20.70
2015,07,01,08,03,20.80
2015,07,01,08,04,20.80
2015,07,01,08,05,20.80
2015,07,01,08,06,20.80
2015,07,01,08,07,20.80
2015,07,01,08,08,20.80
2015,07,01,08,09,20.90
2015,07,01,08,10,20.90
2015,07,01,08,11,20.90
2015,07,01,08,12,20.90
2015,07,01,08,13,20.90
2015,07,01,08,14,21.00
2015,07,01,08,15,21.00
2015,07,01,08,16,21.10
2015,07,01,08,17,21.10
2015,07,01,08,18,21.20
2015,07,01,08,19,21.20
2015,07,01,08,20,21.20
2015,07,01,08,21,21.20
2015,07,01,08,22,21.10
2015,07,01,08,23,21.10
2015,07,01,08,24,21.10
2015,07,01,08,25,21.10
2015,07,01,08,26,21.10
2015,07,01,08,27,21.00
2015,07,01,08,28,21.00
2015,07,01,08,29,21.00
2015,07,01,08,30,21.00
2015,07,01,08,31,21.00
2015,07,01,08,32,21.10
2015,07,01,08,33,21.10
2015,07,01,08,34,21.20
2015,07,01,08,35,21.20
2015,07,01,08,36,21.20
2015,07,01,08,37,21.20
2015,07,01,08,38,21.30
2015,07,01,08,39,21.30
2015,07,01,08,40,21.40
2015,07,01,08,41,21.50
2015,07,01,08,42,21.60
2015,07,01,08,43,21.60
2015,07,01,08,44,21.70
2015,07,01,08,45,21.80
2015,07,01,08,46,21.80
2015,07,01,08,47,21.90
2015,07,01,08,48,22.00
2015,07,01,08,49,22.00
2015,07,01,08,50,22.10
2015,07,01,08,51,22.20
2015,07,01,08,52,22.20
2015,07,01,08,53,22.20
2015,07,01,08,54,22.20
2015,07,01,08,55,22.20
2015,07,01,08,56,22.20
2015,07,01,08,57,22.20
2015,07,01,08,58,22.20
2015,07,01,08,59,22.30
2015,07,01,09,00,22.30
2015,07,01,09,01,22.30
2015,07,01,09,02,22.40
2015,07,01,09,03,22.40
2015,07,01,09,04,22.40
2015,07,01,09,05,22.30
2015,07,01,09,06,22.30
2015,07,01,09,07,22.20
2015,07,01,09,08,22.20
2015,07,01,09,09,22.20
2015,07,01,09,10,22.20
2015,07,01,09,11,22.30
2015,07,01,09,12,22.40
2015,07,01,09,13,22.50
2015,07,01,09,14,22.50
2015,07,01,09,15,22.50
2015,07,01,09,16,22.50
2015,07,01,09,17,22.40
2015,07,01,09,18,22.40
2015,07,01,09,19,22.30
2015,07,01,09,20,22.30
2015,07,01,09,21,22.20
2015,07,01,09,22,22.20
2015,07,01,09,23,22.30
2015,07,01,09,24,22.30
2015,07,01,09,25,22.30
2015,07,01,09,26,22.30
2015,07,01,09,27,22.40
2015,07,01,09,28,22.50
2015,07,01,09,29,22.50
2015,07,01,09,30,22.60
2015,07,01,09,31,22.60
2015,07,01,09,32,22.70
2015,07,01,09,33,22.80
2015,07,01,09,34,22.90
2015,07,01,09,35,23.00
2015,07,01,09,36,23.10
2015,07,01,09,37,23.20
2015,07,01,09,38,23.30
2015,07,01,09,39,23.40
2015,07,01,09,40,23.50
2015,07,01,09,41,23.60
2015,07,01,09,42,23.70
2015,07,01,09,43,23.70
2015,07,01,09,44,23.70
2015,07,01,09,45,23.70
2015,07,01,09,46,23.60
2015,07,01,09,47,23.60
2015,07,01,09,48,23.60
2015,07,01,09,49,23.60
2015,07,01,09,50,23.60
2015,07,01,09,51,23.70
2015,07,01,09,52,23.70
2015,07,01,09,53,23.70
2015,07,01,09,54,23.80
2015,07,01,09,55,23.80
2015,07,01,09,56,23.80
2015,07,01,09,57,23.80
2015,07,01,09,58,23.80
2015,07,01,09,59,23.70
2015,07,01,10,00,23.70
2015,07,01,10,01,23.70
2015,07,01,10,02,23.70
2015,07,01,10,03,23.70
2015,07,01,10,04,23.70
2015,07,01,10,05,23.70
2015,07,01,10,06,23.60
2015,07,01,10,07,23.60
2015,07,01,10,08,23.60
2015,07,01,10,09,23.60
2015,07,01,10,10,23.60
2015,07,01,10,11,23.60
2015,07,01,10,12,23.60
2015,07,01,10,13,23.60
2015,07,01,10,14,23.60
2015,07,01,10,15,23.70
2015,07,01,10,16,23.70
2015,07,01,10,17,23.80
2015,07,01,10,18,23.80
2015,07,01,10,19,23.80
2015,07,01,10,20,23.80
2015,07,01,10,21,23.80
2015,07,01,10,22,23.70
2015,07,01,10,23,23.70
2015,07,01,10,24,23.70
2015,07,01,10,25,23.70
2015,07,01,10,26,23.70
2015,07,01,10,27,23.70
2015,07,01,10,28,23.70
2015,07,01,10,29,23.70
2015,07,01,10,30,23.70
2015,07,01,10,31,23.80
2015,07,01,10,32,23.80
2015,07,01,10,33,23.80
2015,07,01,10,34,23.80
2015,07,01,10,35,23.80
2015,07,01,10,36,23.80
2015,07,01,10,37,23.80
2015,07,01,10,38,23.90
2015,07,01,10,39,23.90
2015,07,01,10,40,24.00
2015,07,01,10,41,24.00
2015,07,01,10,42,24.10
2015,07,01,10,43,24.10
2015,07,01,10,44,24.10
2015,07,01,10,45,24.20
2015,07,01,10,46,24.20
2015,07,01,10,47,24.30
2015,07,01,10,48,24.30
2015,07,01,10,49,24.30
2015,07,01,10,50,24.30
2015,07,01,10,51,24.40
2015,07,01,10,52,24.40
2015,07,01,10,53,24.50
2015,07,01,10,54,24.50
2015,07,01,10,55,24.50
2015,07,01,10,56,24.60
2015,07,01,10,57,24.50
2015,07,01,10,58,24.50
2015,07,01,10,59,24.50
2015,07,01,11,00,24.50
2015,07,01,11,01,24.50
2015,07,01,11,02,24.40
2015,07,01,11,03,24.30
2015,07,01,11,04,24.30
2015,07,01,11,05,24.30
2015,07,01,11,06,24.30
2015,07,01,11,07,24.20
2015,07,01,11,08,24.20
2015,07,01,11,09,24.30
2015,07,01,11,10,24.40
2015,07,01,11,11,24.40
2015,07,01,11,12,24.40
2015,07,01,11,13,24.50
2015,07,01,11,14,24.50
2015,07,01,11,15,24.50
2015,07,01,11,16,24.50
2015,07,01,11,17,24.50
2015,07,01,11,18,24.50
2015,07,01,11,19,24.60
2015,07,01,11,20,24.60
2015,07,01,11,21,24.60
2015,07,01,11,22,24.60
2015,07,01,11,23,24.60
2015,07,01,11,24,24.60
2015,07,01,11,25,24.60
2015,07,01,11,26,24.50
2015,07,01,11,27,24.40
2015,07,01,11,28,24.40
2015,07,01,11,29,24.40
2015,07,01,11,30,24.40
2015,07,01,11,31,24.40
2015,07,01,11,32,24.40
2015,07,01,11,33,24.30
2015,07,01,11,34,24.30
2015,07,01,11,35,24.30
2015,07,01,11,36,24.30
2015,07,01,11,37,24.40
2015,07,01,11,38,24.40
2015,07,01,11,39,24.40
2015,07,01,11,40,24.40
2015,07,01,11,41,24.40
2015,07,01,11,42,24.40
2015,07,01,11,43,24.50
2015,07,01,11,44,24.50
2015,07,01,11,45,24.40
2015,07,01,11,46,24.30
2015,07,01,11,47,24.30
2015,07,01,11,48,24.30
2015,07,01,11,49,24.40
2015,07,01,11,50,24.50
2015,07,01,11,51,24.60
2015,07,01,11,52,24.60
2015,07,01,11,53,24.60
2015,07,01,11,54,24.60
2015,07,01,11,55,24.60
2015,07,01,11,56,24.60
2015,07,01,11,57,24.70
2015,07,01,11,58,24.70
2015,07,01,11,59,24.70
2015,07,01,12,00,24.80
2015,07,01,12,01,24.90
2015,07,01,12,02,24.90
2015,07,01,12,03,24.90
2015,07,01,12,04,24.90
2015,07,01,12,05,24.90
2015,07,01,12,06,24.90
2015,07,01,12,07,25.00
2015,07,01,12,08,25.00
2015,07,01,12,09,25.10
2015,07,01,12,10,25.00
2015,07,01,12,11,25.10
2015,07,01,12,12,25.10
2015,07,01,12,13,25.10
2015,07,01,12,14,25.10
2015,07,01,12,15,25.10
2015,07,01,12,16,25.20
2015,07,01,12,17,25.20
2015,07,01,12,18,25.20
2015,07,01,12,19,25.30
2015,07,01,12,20,25.30
2015,07,01,12,21,25.30
2015,07,01,12,22,25.30
2015,07,01,12,23,25.30
2015,07,01,12,24,25.30
2015,07,01,12,25,25.30
2015,07,01,12,26,25.30
2015,07,01,12,27,25.30
2015,07,01,12,28,25.40
2015,07,01,12,29,25.40
2015,07,01,12,30,25.50
2015,07,01,12,31,25.50
2015,07,01,12,32,25.60
2015,07,01,12,33,25.60
2015,07,01,12,34,25.60
2015,07,01,12,35,25.60
2015,07,01,12,36,25.60
2015,07,01,12,37,25.60
2015,07,01,12,38,25.50
2015,07,01,12,39,25.50
2015,07,01,12,40,25.40
2015,07,01,12,41,25.40
2015,07,01,12,42,25.40
2015,07,01,12,43,25.40
2015,07,01,12,44,25.40
2015,07,01,12,45,25.50
2015,07,01,12,46,25.60
2015,07,01,12,47,25.80
2015,07,01,12,48,26.00
2015,07,01,12,49,26.00
2015,07,01,12,50,25.90
2015,07,01,12,51,25.90
2015,07,01,12,52,25.80
2015,07,01,12,53,25.70
2015,07,01,12,54,25.70
2015,07,01,12,55,25.70
2015,07,01,12,56,25.70
2015,07,01,12,57,25.70
2015,07,01,12,58,25.70
2015,07,01,12,59,25.70
2015,07,01,13,00,25.70
2015,07,01,13,01,25.70
2015,07,01,13,02,25.70
2015,07,01,13,03,25.70
2015,07,01,13,04,25.70
2015,07,01,13,05,25.80
2015,07,01,13,06,25.80
2015,07,01,13,07,25.80
2015,07,01,13,08,25.80
2015,07,01,13,09,25.90
2015,07,01,13,10,26.00
2015,07,01,13,11,26.10
2015,07,01,13,12,26.10
2015,07,01,13,13,26.10
2015,07,01,13,14,26.10
2015,07,01,13,15,26.10
2015,07,01,13,16,26.00
2015,07,01,13,17,26.00
2015,07,01,13,18,26.00
2015,07,01,13,19,25.90
2015,07,01,13,20,26.00
2015,07,01,13,21,26.00
2015,07,01,13,22,25.90
2015,07,01,13,23,25.90
2015,07,01,13,24,25.80
2015,07,01,13,25,25.80
2015,07,01,13,26,25.80
2015,07,01,13,27,25.70
2015,07,01,13,28,25.70
2015,07,01,13,29,25.60
2015,07,01,13,30,25.50
2015,07,01,13,31,25.40
2015,07,01,13,32,25.50
2015,07,01,13,33,25.40
2015,07,01,13,34,25.40
2015,07,01,13,35,25.50
2015,07,01,13,36,25.50
2015,07,01,13,37,25.60
2015,07,01,13,38,25.60
2015,07,01,13,39,25.60
2015,07,01,13,40,25.70
2015,07,01,13,41,25.60
2015,07,01,13,42,25.60
2015,07,01,13,43,25.70
2015,07,01,13,44,25.70
2015,07,01,13,45,25.70
2015,07,01,13,46,25.80
2015,07,01,13,47,25.80
2015,07,01,13,48,25.90
2015,07,01,13,49,26.00
2015,07,01,13,50,26.10
2015,07,01,13,51,26.20
2015,07,01,13,52,26.20
2015,07,01,13,53,26.20
2015,07,01,13,54,26.40
2015,07,01,13,55,26.50
2015,07,01,13,56,26.60
2015,07,01,13,57,26.70
2015,07,01,13,58,26.80
2015,07,01,13,59,26.80
2015,07,01,14,00,26.80
2015,07,01,14,01,26.90
2015,07,01,14,02,26.80
2015,07,01,14,03,26.80
2015,07,01,14,04,26.80
2015,07,01,14,05,26.80
2015,07,01,14,06,26.70
2015,07,01,14,07,26.70
2015,07,01,14,08,26.60
2015,07,01,14,09,26.60
2015,07,01,14,10,26.60
2015,07,01,14,11,26.60
2015,07,01,14,12,26.60
2015,07,01,14,13,26.60
2015,07,01,14,14,26.60
2015,07,01,14,15,26.60
2015,07,01,14,16,26.60
2015,07,01,14,17,26.60
2015,07,01,14,18,26.70
2015,07,01,14,19,26.70
2015,07,01,14,20,26.70
2015,07,01,14,21,26.70
2015,07,01,14,22,26.70
2015,07,01,14,23,26.70
2015,07,01,14,24,26.70
2015,07,01,14,25,26.70
2015,07,01,14,26,26.70
2015,07,01,14,27,26.80
2015,07,01,14,28,26.80
2015,07,01,14,29,26.80
2015,07,01,14,30,26.80
2015,07,01,14,31,26.90
2015,07,01,14,32,26.90
2015,07,01,14,33,27.00
2015,07,01,14,34,26.90
2015,07,01,14,35,26.90
2015,07,01,14,36,26.90
2015,07,01,14,37,27.00
2015,07,01,14,38,27.00
2015,07,01,14,39,27.00
2015,07,01,14,40,27.00
2015,07,01,14,41,27.00
2015,07,01,14,42,27.00
2015,07,01,14,43,27.00
2015,07,01,14,44,27.00
2015,07,01,14,45,27.00
2015,07,01,14,46,27.00
2015,07,01,14,47,26.90
2015,07,01,14,48,26.90
2015,07,01,14,49,26.80
2015,07,01,14,50,26.90
2015,07,01,14,51,26.80
2015,07,01,14,52,26.70
2015,07,01,14,53,26.50
2015,07,01,14,54,26.40
2015,07,01,14,55,26.30
2015,07,01,14,56,26.30
2015,07,01,14,57,26.40
2015,07,01,14,58,26.50
2015,07,01,14,59,26.60
2015,07,01,15,00,26.60
2015,07,01,15,01,26.60
2015,07,01,15,02,26.60
2015,07,01,15,03,26.60
2015,07,01,15,04,26.60
2015,07,01,15,05,26.50
2015,07,01,15,06,26.50
2015,07,01,15,07,26.50
2015,07,01,15,08,26.50
2015,07,01,15,09,26.50
2015,07,01,15,10,26.50
2015,07,01,15,11,26.40
2015,07,01,15,12,26.40
2015,07,01,15,13,26.30
2015,07,01,15,14,26.30
2015,07,01,15,15,26.30
2015,07,01,15,16,26.20
2015,07,01,15,17,26.20
2015,07,01,15,18,26.10
2015,07,01,15,19,26.00
2015,07,01,15,20,26.00
2015,07,01,15,21,25.90
2015,07,01,15,22,25.70
2015,07,01,15,23,25.60
2015,07,01,15,24,25.60
2015,07,01,15,25,25.60
2015,07,01,15,26,25.60
2015,07,01,15,27,25.60
2015,07,01,15,28,25.60
2015,07,01,15,29,25.70
2015,07,01,15,30,25.70
2015,07,01,15,31,25.60
2015,07,01,15,32,25.50
2015,07,01,15,33,25.40
2015,07,01,15,34,25.40
2015,07,01,15,35,25.40
2015,07,01,15,36,25.50
2015,07,01,15,37,25.60
2015,07,01,15,38,25.70
2015,07,01,15,39,25.70
2015,07,01,15,40,25.70
2015,07,01,15,41,25.70
2015,07,01,15,42,25.70
2015,07,01,15,43,25.70
2015,07,01,15,44,25.70
2015,07,01,15,45,25.70
2015,07,01,15,46,25.70
2015,07,01,15,47,25.70
2015,07,01,15,48,25.70
2015,07,01,15,49,25.80
2015,07,01,15,50,25.80
2015,07,01,15,51,25.80
2015,07,01,15,52,25.80
2015,07,01,15,53,25.80
2015,07,01,15,54,25.80
2015,07,01,15,55,25.80
2015,07,01,15,56,25.80
2015,07,01,15,57,25.80
2015,07,01,15,58,25.80
2015,07,01,15,59,25.90
2015,07,01,16,00,26.00
2015,07,01,16,01,26.10
2015,07,01,16,02,26.10
2015,07,01,16,03,26.10
2015,07,01,16,04,26.00
2015,07,01,16,05,26.00
2015,07,01,16,06,26.10
2015,07,01,16,07,26.10
2015,07,01,16,08,26.20
2015,07,01,16,09,26.20
2015,07,01,16,10,26.30
2015,07,01,16,11,26.30
2015,07,01,16,12,26.30
2015,07,01,16,13,26.30
2015,07,01,16,14,26.20
2015,07,01,16,15,26.20
2015,07,01,16,16,26.20
2015,07,01,16,17,26.30
2015,07,01,16,18,26.30
2015,07,01,16,19,26.30
2015,07,01,16,20,26.30
2015,07,01,16,21,26.30
2015,07,01,16,22,26.30
2015,07,01,16,23,26.30
2015,07,01,16,24,26.30
2015,07,01,16,25,26.30
2015,07,01,16,26,26.30
2015,07,01,16,27,26.30
2015,07,01,16,28,26.30
2015,07,01,16,29,26.30
2015,07,01,16,30,26.30
2015,07,01,16,31,26.30
2015,07,01,16,32,26.30
2015,07,01,16,33,26.30
2015,07,01,16,34,26.30
2015,07,01,16,35,26.40
2015,07,01,16,36,26.50
2015,07,01,16,37,26.50
2015,07,01,16,38,26.60
2015,07,01,16,39,26.60
2015,07,01,16,40,26.70
2015,07,01,16,41,26.70
2015,07,01,16,42,26.70
2015,07,01,16,43,26.70
2015,07,01,16,44,26.70
2015,07,01,16,45,26.70
2015,07,01,16,46,26.70
2015,07,01,16,47,26.60
2015,07,01,16,48,26.60
2015,07,01,16,49,26.60
2015,07,01,16,50,26.60
2015,07,01,16,51,26.60
2015,07,01,16,52,26.50
2015,07,01,16,53,26.50
2015,07,01,16,54,26.50
2015,07,01,16,55,26.50
2015,07,01,16,56,26.40
2015,07,01,16,57,26.50
2015,07,01,16,58,26.50
2015,07,01,16,59,26.50
2015,07,01,17,00,26.50
2015,07,01,17,01,26.60
2015,07,01,17,02,26.60
2015,07,01,17,03,26.60
2015,07,01,17,04,26.60
2015,07,01,17,05,26.60
2015,07,01,17,06,26.60
2015,07,01,17,07,26.60
2015,07,01,17,08,26.60
2015,07,01,17,09,26.50
2015,07,01,17,10,26.40
2015,07,01,17,11,26.30
2015,07,01,17,12,26.20
2015,07,01,17,13,26.10
2015,07,01,17,14,26.00
2015,07,01,17,15,26.00
2015,07,01,17,16,25.90
2015,07,01,17,17,25.80
2015,07,01,17,18,25.80
2015,07,01,17,19,25.80